Погода в Чинданте 2-ом

Россия / Забайкальский край     50°22′25″N   116°22′49″E
темп.,
°C
ветер,
м/с
пор.,
м/с
влажн.,
%
обл.,
%
осадки,
мм/ч
давл.,
гПа
погр.,
м
8 мая, сб
сб800:00+5с410615 0.0 1004285
03:00+3ссз35665 0.0 100687
06:00+1с35750 0.0 100791
09:00+7с58480 0.0 1007968
12:00+10ссз71031100 0.0 10062805
15:00+11ссз7932100 0.0 10052806
18:00+11с6102645 0.0 10042785
21:00+8с34365 0.0 100656
9 мая, вс
вс900:00+6с114435 0.0 100710
03:00+5с114984 0.0 100710
06:00+4с2254100 0.0 100712
09:00+8сз4647100 0.1 10071189
12:00+9сз444693 0.0 10071273
15:00+12ссз5632100 0.1 10052334
18:00+13с452897 0.0 10052623
21:00+8в354532 0.0 100774
10 мая, пн
пн1000:00+7юв014697 0.0 100810
03:00+6всв114985 0.0 100810
06:00+5вюв1150100 0.0 100910
09:00+10ююв224010 0.0 1009648
12:00+13ююв3231100 0.0 10072381
15:00+14ююв3332100 0.0 10062148
18:00+15ююз2227100 0.0 10052177
21:00+12вюв6939100 0.0 1006469
11 мая, вт
вт1100:00+10в71246100 0.0 1006516
03:00+8в101550100 0.0 1004574
06:00+7в101656100 0.2 1002775
09:00+8в111653100 0.8 10001139
12:00+8всв111758100 0.8 10001353
15:00+10св101661100 2.1 9991800
18:00+10св101560100 0.3 10011399
21:00+7св81371100 0.3 10041017
12 мая, ср
ср1200:00+7ссв61070100 0.1 10061241
03:00+6с6117071 0.1 1006395
06:00+4с51079100 0.0 1008393
09:00+7с7964100 0.0 10081112
12:00+8ссв7856100 0.0 10081305
15:00+11ссв6845100 0.0 10071604
18:00+11св4545100 0.0 10071367
21:00+9вюв1153100 0.0 100912